CMS-02 (GSAT 24)

Last updated on Wed Nov 20 2024 00:02:43 GMT+0000 (Coordinated Universal Time)

1 52903U 22067A 24324.48836759 -.00000163 00000+0 00000+0 0 9990 2 52903 0.0495 101.3615 0004851 160.1213 56.3466 1.00271627 8844
UTC large
Height (km)
Speed (km/s)
/
Latitude / Longitude
Inclination (degrees)
Orbital Period (minutes)
Azimuth
Elevation
Range (km)
Doppler Factor

Next 0 passes for location: London (51.5072 / 0.1276)

Sorry there are no passes over London.